Miami, FL

12:21 PM EST on December 11, 2019 (GMT -0500)
Miami International

Weather History for KMIA - September, 2019

Change the Weather History Date:

Sunday, September 15, 2019

  Actual Average Record
Temperature  
Mean Temperature 87 °F 83 °F  
Max Temperature 94 °F 89 °F 95 °F (1895)
Min Temperature 79 °F 77 °F 66 °F (1938)
Degree Days  
Heating Degree Days 0 0  
Month to date heating degree days 0 0  
Since 1 July heating degree days 0 0  
Cooling Degree Days 22 18  
Month to date cooling degree days 324 272  
Year to date cooling degree days 3802 3347  
Growing Degree Days 36 (Base 50)    
Moisture  
Dew Point 74 °F    
Average Humidity 70    
Maximum Humidity 91    
Minimum Humidity 49    
Precipitation  
Precipitation T in 0.34 in 3.81 in (1945)
Month to date precipitation 2.32 4.83  
Year to date precipitation 54.24 45.23  
Snow  
Snow 0.00 in - - ()
Month to date snowfall 0.0  
Since 1 July snowfall 0.0  
Since 1 September snowfall 0.0  
Snow Depth 0.00 in    
Sea Level Pressure  
Sea Level Pressure 29.92 in    
Wind  
Wind Speed 6 mph (West)    
Max Wind Speed 15 mph    
Max Gust Speed 21 mph    
Visibility 10 miles    
Events Rain    
T = Trace of Precipitation, MM = Missing Value Source: NWS Daily Summary

Daily Weather History Graph

Daily Weather History Graph

Search for Another Location

Airport or City:

Astronomy

Sep. 15, 2019 Rise Set
Actual Time 7:06 AM EDT 7:25 PM EDT
Civil Twilight 6:43 AM EDT 7:48 PM EDT
Nautical Twilight 6:16 AM EDT 8:15 PM EDT
Astronomical Twilight 5:49 AM EDT 8:42 PM EDT
Moon 8:37 PM EDT (9/15) 8:13 AM EDT (9/15)
Length of Visible Light 13h 04m
Length of Day
12h 18m
Full, 98% of the Moon is Illuminated
Sep 15
Full
Sep 21
Last Quarter
Sep 28
New
Oct 5
First Quarter
Oct 13
Full

Hourly Weather History & Observations

Time (EDT) Temp. Heat Index Dew Point Humidity Pressure Visibility Wind Dir Wind Speed Gust Speed Precip Events Conditions
12:19 AM 80.1 °F 85.8 °F 77.0 °F 90% 29.93 in 10.0 mi West 4.6 mph - N/A   Overcast
12:53 AM 80.1 °F 85.8 °F 77.0 °F 90% 29.94 in 10.0 mi West 3.5 mph - N/A   Mostly Cloudy
1:53 AM 80.1 °F 85.8 °F 77.0 °F 90% 29.93 in 10.0 mi WNW 3.5 mph - N/A   Scattered Clouds
2:53 AM 80.1 °F 85.4 °F 75.9 °F 87% 29.91 in 10.0 mi West 5.8 mph - N/A   Scattered Clouds
3:53 AM 79.0 °F - 75.9 °F 90% 29.91 in 10.0 mi West 3.5 mph - N/A   Scattered Clouds
4:53 AM 79.0 °F - 75.9 °F 90% 29.91 in 6.0 mi West 3.5 mph - N/A   Mostly Cloudy
5:53 AM 79.0 °F - 75.9 °F 90% 29.91 in 6.0 mi WNW 3.5 mph - N/A   Mostly Cloudy
6:53 AM 79.0 °F - 75.9 °F 90% 29.92 in 10.0 mi WNW 3.5 mph - N/A   Mostly Cloudy
7:53 AM 80.1 °F 85.4 °F 75.9 °F 87% 29.93 in 10.0 mi WNW 3.5 mph - N/A   Mostly Cloudy
8:53 AM 82.9 °F 91.8 °F 77.0 °F 82% 29.94 in 10.0 mi Variable 4.6 mph - N/A   Mostly Cloudy
9:53 AM 84.9 °F 93.3 °F 75.0 °F 72% 29.96 in 10.0 mi NW 4.6 mph - N/A   Mostly Cloudy
10:53 AM 87.1 °F 95.4 °F 73.9 °F 65% 29.96 in 10.0 mi Variable 4.6 mph - N/A   Mostly Cloudy
11:53 AM 88.0 °F 96.5 °F 73.9 °F 63% 29.95 in 10.0 mi West 5.8 mph - N/A   Mostly Cloudy
12:53 PM 90.0 °F 97.9 °F 73.0 °F 57% 29.94 in 10.0 mi West 8.1 mph - N/A   Mostly Cloudy
1:53 PM 91.9 °F 100.7 °F 73.0 °F 54% 29.92 in 10.0 mi WSW 9.2 mph - N/A   Mostly Cloudy
2:53 PM 93.0 °F 101.9 °F 73.0 °F 52% 29.89 in 10.0 mi WSW 11.5 mph - N/A   Scattered Clouds
3:53 PM 93.0 °F 100.7 °F 72.0 °F 50% 29.88 in 10.0 mi WSW 10.4 mph - N/A   Mostly Cloudy
4:53 PM 91.9 °F 99.5 °F 72.0 °F 52% 29.88 in 10.0 mi West 10.4 mph - N/A   Mostly Cloudy
5:53 PM 91.9 °F 98.4 °F 71.1 °F 50% 29.89 in 10.0 mi West 9.2 mph 20.7 mph N/A   Scattered Clouds
6:53 PM 88.0 °F 94.7 °F 72.0 °F 59% 29.88 in 10.0 mi WNW 6.9 mph - N/A   Scattered Clouds
7:53 PM 87.1 °F 94.5 °F 73.0 °F 63% 29.90 in 10.0 mi West 6.9 mph - N/A   Scattered Clouds
8:53 PM 87.1 °F 95.4 °F 73.9 °F 65% 29.93 in 10.0 mi West 5.8 mph - N/A   Scattered Clouds
9:53 PM 82.9 °F 90.2 °F 75.0 °F 77% 29.95 in 9.0 mi North 5.8 mph - 0.00 in Rain Light Rain
10:53 PM 82.9 °F 88.8 °F 73.0 °F 72% 29.94 in 10.0 mi Variable 5.8 mph - 0.00 in   Scattered Clouds
11:53 PM 82.9 °F 88.8 °F 73.0 °F 72% 29.95 in 10.0 mi WNW 6.9 mph - N/A   Partly Cloudy